User: anonymous   Login
Location: Sungai Bunut
(2.6333°N, 113.7333°E)
Time: 18:15:03
(UTC+00:00)
Language:

Cosmos 2074 Rocket - Orbit

View from above orbital plane
View from above orbital plane
View from above satellite
View from above satellite

Ground track
Ground track

The orbit data is extracted from the following two-line orbital elements,

1 20578U 90036B   22023.93109079 -.00000049  00000-0 -65539-4 0  9994
2 20578  82.9435 191.3629 0012025 317.8216 150.7887 13.76399748595039
Epoch (UTC): 23 January 2022 22:20:46
Eccentricity: 0.0012025
inclination: 82.9435°
perigee height: 968 km
apogee height: 985 km
right ascension of ascending node: 191.3629°
argument of perigee: 317.8216°
revolutions per day: 13.76399748
mean anomaly at epoch: 150.7887°
orbit number at epoch: 59503

The dashed part of the orbit path shows where the satellite is in the earth's shadow,  

DLR